C/2019 D1 ( Flewelling )

Japanese version
Home page
Updated on December 9, 2019

---------------------------------------------------------------------

* Profile

Discovery Date February 26, 2019
Magnitude 16.7 mag
Discoverer Heather Flewelling (Asteroid Terrestrial-Impact Last Alert System (ATLAS) search program)

* Pictures

* Orbital Elements

Epoch 2019 Apr. 27.0 TT = JDT 2458600.5
T 2019 May 11.84144 TT                                  Williams
q   1.5775551            (2000.0)            P               Q
z  +0.0072200      Peri.   70.47655     +0.40560144     +0.80114099
 +/-0.0000026      Node   231.71816     -0.89448655     +0.44696607
e   0.9886101      Incl.   34.09846     +0.18809914     +0.39798800
From 659 observations 2019 Feb. 27-Nov. 4, mean residual 0".5.

* Finding Charts

* Magnitudes Graph

        m1 = 9.5 + 5 log d + 20.0 log r

---------------------------------------------------------------------

The orbital elements are published on M.P.E.C. 2019-V116.
The charts are made with StellaNavigator Ver.10 (AstroArts).
The magnitudes graphs are made with Comet for Windows.

---------------------------------------------------------------------

Copyright(C) Seiichi Yoshida (comet@aerith.net). All rights reserved.